Mountain Home AFB, ID

12:43 AM MST on February 23, 2017 (GMT -0700)
Mountain Home Air Force Base

Weather History for KMUO - October, 2011

Change the Weather History Date:

Monday, October 24, 2011

  Actual Average Record
Temperature  
Mean Temperature 48 °F 48 °F  
Max Temperature 58 °F 62 °F 85 °F (1933)
Min Temperature 38 °F 33 °F 15 °F (1935)
Degree Days  
Heating Degree Days 17 17  
Month to date heating degree days 271 291  
Cooling Degree Days 0 0  
Month to date cooling degree days 13 2  
Moisture  
Dew Point 34 °F    
Average Humidity 66    
Maximum Humidity 100    
Minimum Humidity 30    
Precipitation  
Precipitation T in 0.02 in 0.78 in (1974)
Month to date precipitation 2.17 0.55  
Sea Level Pressure  
Sea Level Pressure 30.02 in    
Wind  
Wind Speed 10 mph (NNW)    
Max Wind Speed 30 mph    
Max Gust Speed 36 mph    
Visibility 10 miles    
Events      
T = Trace of Precipitation, MM = Missing Value Source: NWS Daily Summary

Daily Weather History Graph

Daily Weather History Graph

Search for Another Location

Airport or City:

Trip Planner

Search our weather history database for the weather conditions in past years. The results will help you decide how hot, cold, wet, or windy it might be!

Date:

Astronomy

Oct. 24, 2011 Rise Set
Actual Time 8:07 AM MDT 6:46 PM MDT
Civil Twilight 7:38 AM MDT 7:15 PM MDT
Nautical Twilight 7:05 AM MDT 7:49 PM MDT
Astronomical Twilight 6:32 AM MDT 8:21 PM MDT
Moon 5:28 AM MDT (10/24) 5:16 PM MDT (10/24)
Length of Visible Light 11h 37m
Length of Day
10h 39m
Waning Crescent, 7% of the Moon is Illuminated
Oct 24
Waning Crescent
Oct 26
New
Nov 2
First Quarter
Nov 10
Full
Nov 18
Last Quarter

Hourly Weather History & Observations

Time (MDT) Temp. Windchill Dew Point Humidity Pressure Visibility Wind Dir Wind Speed Gust Speed Precip Events Conditions
12:55 AM 44.8 °F - 43.2 °F 94% 29.96 in 10.0 mi Calm Calm - N/A   Clear
1:55 AM 43.5 °F 41.9 °F 41.7 °F 93% 29.95 in 10.0 mi East 3.5 mph - 0.00 in   Clear
2:55 AM 43.9 °F 39.3 °F 43.9 °F 100% 29.92 in 10.0 mi East 8.1 mph - N/A   Clear
3:55 AM 44.2 °F 41.8 °F 43.9 °F 99% 29.91 in 10.0 mi East 4.6 mph - N/A   Clear
4:55 AM 42.1 °F - 42.1 °F 100% 29.91 in 10.0 mi Calm Calm - N/A   Clear
5:55 AM 39.9 °F - 39.9 °F 100% 29.92 in 10.0 mi Calm Calm - N/A   Clear
6:55 AM 43.3 °F 39.9 °F 42.1 °F 95% 29.57 in 10.0 mi NNE 5.8 mph - N/A   Clear
7:55 AM 41.5 °F 39.6 °F 40.5 °F 96% 29.96 in 10.0 mi Variable 3.5 mph - N/A   Mostly Cloudy
8:55 AM 43.0 °F 41.3 °F 41.4 °F 94% 29.99 in 10.0 mi WNW 3.5 mph - N/A   Mostly Cloudy
9:55 AM 47.5 °F - 45.9 °F 94% 30.02 in 10.0 mi West 5.8 mph - N/A   Mostly Cloudy
10:55 AM 53.2 °F - 43.9 °F 71% 30.03 in 10.0 mi NW 20.7 mph - N/A   Mostly Cloudy
11:55 AM 54.5 °F - 39.9 °F 58% 30.03 in 10.0 mi NNW 21.9 mph 29.9 mph N/A   Mostly Cloudy
12:55 PM 56.5 °F - 38.1 °F 50% 30.04 in 10.0 mi NNW 28.8 mph 33.4 mph N/A   Mostly Cloudy
1:55 PM 55.9 °F - 34.3 °F 44% 30.04 in 10.0 mi NNW 29.9 mph 35.7 mph N/A   Mostly Cloudy
2:55 PM 53.4 °F - 29.5 °F 40% 30.06 in 10.0 mi NNW 23.0 mph 31.1 mph N/A   Overcast
3:44 PM 53.6 °F - 28.4 °F 38% 30.06 in 10.0 mi NNW 24.2 mph 31.1 mph N/A   Overcast
3:55 PM 53.8 °F - 29.5 °F 39% 30.06 in 10.0 mi NNW 21.9 mph - N/A   Overcast
4:17 PM 53.6 °F - 28.4 °F 38% 30.06 in 10.0 mi NNW 21.9 mph 29.9 mph N/A   Overcast
4:55 PM 53.4 °F - 28.6 °F 38% 30.07 in 10.0 mi NNW 20.7 mph 26.5 mph N/A   Mostly Cloudy
5:55 PM 52.0 °F - 24.3 °F 34% 30.07 in 10.0 mi NNW 26.5 mph 31.1 mph N/A   Mostly Cloudy
6:55 PM 49.6 °F - 19.2 °F 30% 30.11 in 10.0 mi NNW 16.1 mph - N/A   Scattered Clouds
7:55 PM 43.0 °F 36.8 °F 21.7 °F 43% 30.14 in 10.0 mi WNW 11.5 mph - N/A   Partly Cloudy
8:55 PM 41.2 °F 35.0 °F 23.4 °F 49% 30.16 in 10.0 mi WNW 10.4 mph - N/A   Partly Cloudy
9:55 PM 40.8 °F 33.3 °F 24.8 °F 53% 30.16 in 10.0 mi WNW 13.8 mph - N/A   Partly Cloudy
10:55 PM 38.7 °F 30.9 °F 26.2 °F 61% 30.15 in 10.0 mi WNW 12.7 mph - N/A   Clear
11:55 PM 39.6 °F 31.3 °F 25.7 °F 58% 30.17 in 10.0 mi WNW 15.0 mph - N/A   Clear